Erie, PA

6:15 AM EDT on October 16, 2019 (GMT -0400)
Erie International

Weather History for KERI - August, 2019

Change the Weather History Date:

Saturday, August 31, 2019

  Actual Average Record
Temperature  
Mean Temperature 63 °F 69 °F  
Max Temperature 71 °F 77 °F 93 °F (1881)
Min Temperature 55 °F 61 °F 46 °F (1976)
Degree Days  
Heating Degree Days 2 1  
Month to date heating degree days 1 6  
Since 1 June heating degree days 39 79  
Since 1 July heating degree days 1 18  
Cooling Degree Days 0 4  
Month to date cooling degree days 225 183  
Year to date cooling degree days 690 558  
Since 1 June cooling degree days 657 519  
Growing Degree Days 13 (Base 50)    
Moisture  
Dew Point 51 °F    
Average Humidity 63    
Maximum Humidity 90    
Minimum Humidity 47    
Precipitation  
Precipitation 0.00 in 0.11 in 2.01 in (2016)
Month to date precipitation 3.82 3.47  
Year to date precipitation 26.32 25.83  
Snow  
Snow 0.00 in 0.00 in - ()
Month to date snowfall 0.0 0.0  
Since 1 June snowfall 0.0 0.0  
Since 1 July snowfall 0.0 0.0  
Snow Depth 0.00 in    
Sea Level Pressure  
Sea Level Pressure 30.28 in    
Wind  
Wind Speed 4 mph ()    
Max Wind Speed 15 mph    
Max Gust Speed 19 mph    
Visibility 10.0 miles    
Events      
T = Trace of Precipitation, MM = Missing Value Source: Averaged Metar Reports

Daily Weather History Graph

Daily Weather History Graph

Search for Another Location

Airport or City:

Astronomy

Aug. 31, 2019 Rise Set
Actual Time 6:44 AM EDT 7:56 PM EDT
Civil Twilight 6:16 AM EDT 8:25 PM EDT
Nautical Twilight 5:41 AM EDT 8:59 PM EDT
Astronomical Twilight 5:05 AM EDT 9:35 PM EDT
Moon 7:59 AM EDT (8/31) 9:07 PM EDT (8/31)
Length of Visible Light 14h 09m
Length of Day
13h 11m
New Moon, 2% of the Moon is Illuminated
Aug 31
New Moon
Sep 5
First Quarter
Sep 14
Full
Sep 21
Last Quarter
Sep 28
New

Hourly Weather History & Observations

Time (EDT) Temp. Dew Point Humidity Pressure Visibility Wind Dir Wind Speed Gust Speed Precip Events Conditions
12:51 AM 61.0 °F 57.0 °F 87% 30.19 in 10.0 mi Calm Calm - N/A   Partly Cloudy
1:51 AM 60.1 °F 55.0 °F 83% 30.20 in 10.0 mi South 3.5 mph - N/A   Scattered Clouds
2:51 AM 60.1 °F 53.1 °F 78% 30.20 in 9.0 mi Calm Calm - N/A   Clear
3:51 AM 59.0 °F 52.0 °F 78% 30.22 in 10.0 mi Calm Calm - N/A   Clear
4:51 AM 57.0 °F 52.0 °F 83% 30.23 in 10.0 mi South 3.5 mph - N/A   Clear
5:51 AM 57.0 °F 52.0 °F 83% 30.25 in 10.0 mi Calm Calm - N/A   Clear
6:51 AM 55.9 °F 52.0 °F 87% 30.28 in 10.0 mi East 3.5 mph - N/A   Clear
7:51 AM 63.0 °F 53.1 °F 70% 30.29 in 10.0 mi NE 10.4 mph - N/A   Clear
8:51 AM 64.9 °F 52.0 °F 63% 30.30 in 10.0 mi NNE 13.8 mph - N/A   Clear
9:51 AM 66.9 °F 53.1 °F 61% 30.32 in 10.0 mi NNE 11.5 mph - N/A   Clear
10:51 AM 66.9 °F 52.0 °F 59% 30.33 in 10.0 mi NE 9.2 mph - N/A   Clear
11:51 AM 69.1 °F 52.0 °F 54% 30.33 in 10.0 mi Variable 6.9 mph - N/A   Clear
12:51 PM 69.1 °F 51.1 °F 53% 30.32 in 10.0 mi North 9.2 mph - N/A   Clear
1:51 PM 70.0 °F 51.1 °F 51% 30.32 in 10.0 mi North 9.2 mph - N/A   Clear
2:51 PM 70.0 °F 50.0 °F 49% 30.31 in 10.0 mi NNE 10.4 mph - N/A   Clear
3:51 PM 69.1 °F 51.1 °F 53% 30.31 in 10.0 mi North 10.4 mph - N/A   Clear
4:51 PM 70.0 °F 50.0 °F 49% 30.30 in 10.0 mi NNE 5.8 mph - N/A   Clear
5:51 PM 69.1 °F 48.9 °F 49% 30.30 in 10.0 mi North 5.8 mph - N/A   Clear
6:51 PM 68.0 °F 48.0 °F 49% 30.29 in 10.0 mi NE 5.8 mph - N/A   Clear
7:51 PM 66.0 °F 46.0 °F 48% 30.30 in 10.0 mi NE 4.6 mph - N/A   Clear
8:51 PM 63.0 °F 46.9 °F 56% 30.28 in 10.0 mi Calm Calm - N/A   Clear
9:51 PM 64.0 °F 48.0 °F 56% 30.27 in 10.0 mi ENE 5.8 mph - N/A   Partly Cloudy
10:51 PM 64.0 °F 45.0 °F 50% 30.29 in 10.0 mi East 3.5 mph - N/A   Clear
11:51 PM 63.0 °F 46.0 °F 54% 30.28 in 10.0 mi East 3.5 mph - N/A   Mostly Cloudy